User: anonymous   Login
Location: Unspecified
(0.0000°N, 0.0000°E)
Time: 19:31:00
(UTC+00:00)
Language:

CBERS 2B - Orbit

View from above orbital plane
View from above orbital plane
View from above satellite
View from above satellite

Ground track
Ground track

The orbit data is extracted from the following two-line orbital elements,

1 32062U 07042A   19047.46008363 -.00000143  00000-0 -32770-4 0  9990
2 32062  98.0939  59.9125 0031993 136.9295 223.4408 14.39696089599319
Epoch (UTC): 16 February 2019 11:02:31
Eccentricity: 0.0031993
inclination: 98.0939°
perigee height: 736 km
apogee height: 782 km
right ascension of ascending node: 59.9125°
argument of perigee: 136.9295°
revolutions per day: 14.39696089
mean anomaly at epoch: 223.4408°
orbit number at epoch: 59931

The dashed part of the orbit path shows where the satellite is in the earth's shadow,  

DLR